Location: Newark
(25.4800°N, 85.7200°E)
Time: 01:28:44
(UTC+00:00)

Vanguard 1 Rocket - Pass Details

Date: 19 August 2019
Orbit: 651 x 4225 km, 34.3° (Epoch: 19 September)

Event Time Altitude Azimuth Distance (km) Brightness Sun altitude
Rises 22:14:10 0° 282° (WNW) 3,035 - -21.6°
Reaches altitude 10° 22:16:20 10° 291° (WNW) 2,240 - -21.2°
Exits shadow 22:17:53 20° 303° (WNW) 1,756 8.6 -20.8°
Maximum altitude 22:21:01 38° 1° (N) 1,390 8.5 -20.2°
Drops below altitude 10° 22:28:25 10° 68° (ENE) 3,539 11.7 -18.7°
Sets 22:32:46 0° 75° (ENE) 5,094 12.9 -17.8°
